Regional Weather Roundup
Issued by NWS

Home | Current Version | Previous Version | Text Only | Print | Product List | Glossary On
Versions: 1 2 3 4 5 6 7 8 9 10 11 12 13 14 15 16 17 18 19 20 21 22 23 24 25 26 27 28 29 30 31 32 33 34 35 36 37 38 39 40 41 42 43 44 45 46 47 48 49 50
000
ASCA42 TJSJ 171210
RWRPR
PUERTO RICO/U.S. VIRGIN ISLANDS HOURLY WEATHER ROUNDUP
NATIONAL WEATHER SERVICE SAN JUAN PR
800 AM AST TUE OCT 17 2017

PRZ001>002-007>008-010-171300-
PUERTO RICO

CITY           SKY/WX    TMP DP  RH WIND       PRES   REMARKS
SAN JUAN LMM   PTSUNNY   81  79  94 VRB3      30.02R
PONCE          HVY RAIN  77  75  94 N3        30.00S
AGUADILLA      MOSUNNY   82  72  69 E5        30.02R
$$

VIZ001>002-171300-
U.S. VIRGIN ISLANDS

CITY           SKY/WX    TMP DP  RH WIND       PRES   REMARKS
CHARLOTTE AMA    N/A     84  79  84 E16       30.02R HX  96
CHRISTIANSTED  MOSUNNY   86  77  74 SE9       30.01R HAZE    HX  97
$$

HOURLY WEATHER ROUNDUP FOR THE NEWS MEDIA

CITY           SKY/WX    TMP DP  RH WIND       PRES   REMARKS
ORLANDO        CLOUDY    73  72  94 N7        30.04R
NEW YORK       PTCLDY    45  35  68 N12       30.33R
NEWARK         PTCLDY    44  33  65 N9        30.33R
CHICAGO        PTCLDY    50  38  63 SW10      30.18F
HARTFORD       MOSUNNY   39  33  79 N7        30.27R WCI  34
BOSTON         PTCLDY    42  33  70 NW9       30.28R
DALLAS         CLEAR     54  42  64 E7        30.29R
PHILADELPHIA   CLEAR     43  33  68 N9        30.35R
WASHINGTON DC  CLEAR     38  36  92 CALM      30.36R


USA.gov is the U.S. government's official web portal to all federal, state and local government web resources and services.